KE0MVE Weather Reports


Display with metric or nautical units.
time (UTC)temp
F
wind
direction
speed
MPH
gust
MPH
rain 1hr
in
rain 24hr
in
rain mn
in
humidity
%
barometer
mb
20220127074540 33 255 2.0 6.0 0.00 0.00 0.00 86 977.4
20220127073139 33 219 1.0 5.0 0.00 0.00 0.00 86 977.1
20220127071618 32 262 2.0 5.0 0.00 0.00 0.00 85 977.0
20220127070112 32 245 1.0 4.0 0.00 0.00 0.00 84 977.0
20220127064610 31 239 1.0 5.0 0.00 0.00 0.00 83 976.7
20220127063206 31 253 1.0 5.0 0.00 0.00 0.00 82 976.6
20220127061607 31 222 2.0 6.0 0.00 0.00 0.00 82 976.6
20220127060040 31 240 1.0 4.0 0.00 0.00 0.00 81 976.8
20220127054532 31 247 1.0 5.0 0.00 0.00 0.00 81 976.6
20220127053022 30 225 2.0 6.0 0.00 0.00 0.00 81 976.4
20220127051516 29 249 1.0 5.0 0.00 0.00 0.00 82 976.3
20220127050000 29 221 2.0 5.0 0.00 0.00 0.00 82 976.3
20220127044718 28 238 1.0 4.0 0.00 0.00 0.00 82 976.2
20220127043355 28 147 0.0 3.0 0.00 0.00 0.00 82 976.1
20220127041642 27 212 1.0 6.0 0.00 0.00 0.00 81 976.1
20220127040210 26 174 2.0 6.0 0.00 0.00 0.00 81 976.4
20220127034629 26 131 0.0 5.0 0.00 0.00 0.00 81 976.2
20220127033050 25 179 2.0 6.0 0.00 0.00 0.00 81 976.3
20220127031613 25 153 1.0 6.0 0.00 0.00 0.00 81 976.2
20220127030132 24 184 1.0 7.0 0.00 0.00 0.00 80 976.4
20220127024601 24 240 1.0 5.0 0.00 0.00 0.00 81 976.7
20220127023032 24 159 2.0 6.0 0.00 0.00 0.00 80 976.5
20220127021535 23 232 2.0 10.0 0.00 0.00 0.00 80 976.6
20220127020037 23 218 2.0 12.0 0.00 0.00 0.00 80 976.7
20220127014549 23 196 2.0 7.0 0.00 0.00 0.00 80 976.7
20220127013035 23 230 2.0 9.0 0.00 0.00 0.00 79 977.2
20220127011543 23 209 3.0 9.0 0.00 0.00 0.00 79 977.1
20220127010044 23 107 3.0 14.0 0.00 0.00 0.00 80 977.0
20220127004510 22 208 2.0 13.0 0.00 0.00 0.00 80 976.8
20220127003004 22 265 2.0 9.0 0.00 0.00 0.00 80 977.3
20220127001803 21 217 1.0 7.0 0.00 0.00 0.00 80 977.6
20220127000218 21 269 2.0 10.0 0.00 0.00 0.00 80 977.4
20220126234659 20 150 2.0 6.0 0.00 0.00 0.00 79 977.7
20220126233210 20 233 1.0 8.0 0.00 0.00 0.00 79 977.9
20220126231641 19 169 1.0 5.0 0.00 0.00 0.00 78 978.0
20220126230117 19 275 1.0 7.0 0.00 0.00 0.00 77 978.0
20220126224546 19 240 1.0 7.0 0.00 0.00 0.00 76 978.0
20220126223038 18 141 1.0 7.0 0.00 0.00 0.00 75 978.2
20220126221616 18 233 2.0 7.0 0.00 0.00 0.00 74 978.7
20220126220100 18 141 1.0 6.0 0.00 0.00 0.00 73 978.7
20220126214601 18 222 1.0 8.0 0.00 0.00 0.00 72 979.0
20220126213053 18 179 1.0 10.0 0.00 0.00 0.00 72 979.1
20220126211533 18 119 3.0 12.0 0.00 0.00 0.00 72 979.5
20220126210055 17 127 3.0 12.0 0.00 0.00 0.00 72 979.4
20220126203313 16 234 4.0 12.0 0.00 0.00 0.00 73 979.6
20220126201611 16 203 3.0 10.0 0.00 0.00 0.00 73 979.9
20220126200148 15 244 4.0 14.0 0.00 0.00 0.00 73 980.2
20220126194559 15 160 3.0 21.0 0.00 0.00 0.00 73 980.6
20220126193126 14 223 6.0 15.0 0.00 0.00 0.00 73 981.0
20220126191608 14 219 8.0 17.0 0.00 0.00 0.00 72 981.4
20220126190035 14 198 6.0 19.0 0.00 0.00 0.00 72 981.8
20220126184546 13 176 6.0 17.0 0.00 0.00 0.00 71 982.0
20220126183053 13 241 2.0 11.0 0.00 0.00 0.00 70 982.8
20220126181522 12 199 2.0 11.0 0.00 0.00 0.00 69 983.5
20220126174650 11 148 2.0 10.0 0.00 0.00 0.00 67 984.5
20220126173104 10 233 3.0 14.0 0.00 0.00 0.00 66 985.3
20220126171546 8 141 2.0 10.0 0.00 0.00 0.00 65 985.6
20220126170141 7 209 2.0 8.0 0.00 0.00 0.00 64 985.9
20220126164606 5 172 1.0 11.0 0.00 0.00 0.00 66 986.6
20220126163046 3 151 0.0 8.0 0.00 0.00 0.00 67 986.9
20220126161521 1 131 0.0 6.0 0.00 0.00 0.00 70 987.4
20220126160015 0 282 0.0 5.0 0.00 0.00 0.00 73 987.7
20220126154509 -1 229 0.0 9.0 0.00 0.00 0.00 75 988.0
20220126153009 -2 238 0.0 13.0 0.00 0.00 0.00 79 988.3
20220126150201 -6 173 1.0 6.0 0.00 0.00 0.00 82 989.0
20220126144635 -8 151 1.0 6.0 0.00 0.00 0.00 82 989.6
20220126143101 -9 155 1.0 5.0 0.00 0.00 0.00 82 989.9
20220126141542 -10 149 0.0 5.0 0.00 0.00 0.00 83 990.5
20220126140122 -11 207 0.0 4.0 0.00 0.00 0.00 83 990.9
20220126134656 -12 210 0.0 3.0 0.00 0.00 0.00 83 990.9
20220126133018 -13 164 0.0 2.0 0.00 0.00 0.00 82 991.2
20220126131515 -14 184 0.0 3.0 0.00 0.00 0.00 82 991.5
20220126130025 -14 166 0.0 1.0 0.00 0.00 0.00 82 991.8
20220126124508 -15 141 0.0 1.0 0.00 0.00 0.00 82 992.1
20220126123220 -15 224 0.0 2.0 0.00 0.00 0.00 82 992.3
20220126121631 -15 160 0.0 1.0 0.00 0.00 0.00 82 992.0
20220126120038 -15 152 0.0 3.0 0.00 0.00 0.00 82 992.3
20220126114539 -15 272 0.0 4.0 0.00 0.00 0.00 82 992.8
20220126113039 -16 162 0.0 2.0 0.00 0.00 0.00 82 993.2
20220126111629 -16 100 0.0 0.0 0.00 0.00 0.00 82 993.4
20220126110037 -16 93 0.0 1.0 0.00 0.00 0.00 82 994.0
20220126104520 -17 166 0.0 0.0 0.00 0.00 0.00 82 994.2
20220126103029 -17 208 0.0 1.0 0.00 0.00 0.00 82 994.4
20220126101531 -18 127 0.0 1.0 0.00 0.00 0.00 82 994.5
20220126100155 -18 144 0.0 0.0 0.00 0.00 0.00 82 994.9
20220126094648 -18 161 0.0 0.0 0.00 0.00 0.00 82 995.1
20220126093053 -18 162 0.0 0.0 0.00 0.00 0.00 81 995.3
20220126091619 -17 214 0.0 1.0 0.00 0.00 0.00 82 995.4
20220126090055 -18 175 0.0 0.0 0.00 0.00 0.00 81 995.8
20220126084605 -17 217 0.0 1.0 0.00 0.00 0.00 82 996.1
20220126083040 -17 226 0.0 1.0 0.00 0.00 0.00 81 996.3
20220126081550 -17 136 0.0 0.0 0.00 0.00 0.00 80 996.4
20220126080205 -16 201 0.0 0.0 0.00 0.00 0.00 80 996.3